CSN3694 ZSAM-ZBAD

Flight info

Callsign CSN3694
Flight time N/A
Altitude 34100
Route BUPDU5T BUPDU W643 FOC W644 AKAVO/K0854S1010 A470 DAGMO/K0857S1070 A470 EMRID/K0856S1040 V143 SAPIN A470 DPX A593 DALIM W157 BEKDO/K0843S1070 W157 AVBOX AVBOX5L
Aircraft A321/M-SDE3FGHIRWY/LB1

Departure

Time 2026-05-05 11:47
Airport Xiamen Gaoqi International Airport (ZSAM)

Arrival

Time N/A
Airport Beijing Daxing International Airport (ZBAD)
Time Latitude Longitude Altitude Speed Heading
2026-05-05 11:11 24.53926 118.12775 57 ft 0 kts 143°
2026-05-05 11:36 24.53936 118.12766 52 ft 4 kts 143°
2026-05-05 11:37 24.53954 118.12752 53 ft 4 kts 147°
2026-05-05 11:37 24.53978 118.12740 52 ft 4 kts 175°
2026-05-05 11:37 24.54003 118.12744 53 ft 4 kts 213°
2026-05-05 11:37 24.54021 118.12763 48 ft 2 kts 232°
2026-05-05 11:38 24.54023 118.12764 48 ft 0 kts 232°
2026-05-05 11:40 24.54019 118.12759 56 ft 4 kts 232°
2026-05-05 11:40 24.53986 118.12713 50 ft 10 kts 231°
2026-05-05 11:40 24.53946 118.12658 51 ft 8 kts 231°
2026-05-05 11:41 24.53916 118.12616 51 ft 6 kts 232°
2026-05-05 11:41 24.53909 118.12585 56 ft 4 kts 305°
2026-05-05 11:41 24.53944 118.12549 56 ft 11 kts 323°
2026-05-05 11:41 24.54012 118.12482 53 ft 11 kts 287°
2026-05-05 11:42 24.53977 118.12421 52 ft 9 kts 229°
2026-05-05 11:42 24.53939 118.12376 53 ft 7 kts 224°
2026-05-05 11:42 24.53905 118.12339 55 ft 9 kts 224°
2026-05-05 11:42 24.53851 118.12270 52 ft 15 kts 231°
2026-05-05 11:43 24.53783 118.12172 54 ft 15 kts 232°
2026-05-05 11:43 24.53719 118.12085 57 ft 14 kts 231°
2026-05-05 11:43 24.53664 118.12011 56 ft 12 kts 231°
2026-05-05 11:43 24.53616 118.11941 58 ft 14 kts 232°
2026-05-05 11:44 24.53548 118.11847 61 ft 16 kts 231°
2026-05-05 11:44 24.53484 118.11757 61 ft 12 kts 232°
2026-05-05 11:44 24.53458 118.11699 59 ft 7 kts 265°
2026-05-05 11:44 24.53477 118.11661 55 ft 5 kts 313°
2026-05-05 11:45 24.53500 118.11643 58 ft 3 kts 324°
2026-05-05 11:45 24.53523 118.11624 58 ft 5 kts 323°
2026-05-05 11:45 24.53555 118.11599 57 ft 5 kts 334°
2026-05-05 11:45 24.53594 118.11624 56 ft 10 kts 52°
2026-05-05 11:46 24.53605 118.11639 63 ft 0 kts 51°
2026-05-05 11:46 24.53655 118.11708 56 ft 41 kts 51°
2026-05-05 11:46 24.53974 118.12158 53 ft 104 kts 51°
2026-05-05 11:46 24.54529 118.12933 50 ft 151 kts 52°
2026-05-05 11:47 24.55250 118.13934 224 ft 172 kts 52°
2026-05-05 11:47 24.55984 118.14929 884 ft 165 kts 50°
2026-05-05 11:47 24.56708 118.15890 1491 ft 161 kts 49°
2026-05-05 11:47 24.57429 118.16826 2012 ft 161 kts 49°
2026-05-05 11:48 24.58808 118.18769 2942 ft 161 kts 53°
2026-05-05 11:48 24.59499 118.19770 3248 ft 173 kts 53°
2026-05-05 11:48 24.60268 118.20879 3394 ft 192 kts 53°
2026-05-05 11:49 24.61070 118.22138 3522 ft 211 kts 63°
2026-05-05 11:49 24.61462 118.23756 3659 ft 232 kts 88°
2026-05-05 11:49 24.61427 118.25586 4100 ft 243 kts 91°
2026-05-05 11:49 24.61397 118.27462 4738 ft 248 kts 91°
2026-05-05 11:50 24.61377 118.29359 5293 ft 256 kts 90°
2026-05-05 11:50 24.61361 118.31332 5916 ft 261 kts 90°
2026-05-05 11:50 24.61347 118.33351 6507 ft 267 kts 90°
2026-05-05 11:50 24.61332 118.35415 7075 ft 273 kts 90°
2026-05-05 11:51 24.61308 118.37563 7374 ft 292 kts 91°
2026-05-05 11:51 24.61268 118.39852 7765 ft 305 kts 91°
2026-05-05 11:51 24.61221 118.42212 8335 ft 311 kts 92°
2026-05-05 11:51 24.61188 118.43798 8739 ft 315 kts 92°
2026-05-05 11:52 24.61140 118.46225 9340 ft 320 kts 92°
2026-05-05 11:52 24.61091 118.48693 9931 ft 326 kts 92°
2026-05-05 11:52 24.61039 118.51228 10255 ft 341 kts 92°
2026-05-05 11:52 24.60982 118.53911 10376 ft 362 kts 92°
2026-05-05 11:53 24.60922 118.56753 10505 ft 382 kts 92°
2026-05-05 11:53 24.60861 118.59745 10628 ft 400 kts 92°
2026-05-05 11:53 24.60800 118.62841 11003 ft 409 kts 92°
2026-05-05 11:53 24.60903 118.65981 11506 ft 414 kts 82°
2026-05-05 11:54 24.61629 118.69049 12086 ft 416 kts 68°
2026-05-05 11:54 24.62965 118.71866 12637 ft 418 kts 54°
2026-05-05 11:54 24.64844 118.74296 13146 ft 418 kts 40°
2026-05-05 11:54 24.67172 118.76193 13648 ft 417 kts 27°
2026-05-05 11:55 24.69694 118.77804 14120 ft 421 kts 26°
2026-05-05 11:55 24.72236 118.79430 14548 ft 425 kts 26°
2026-05-05 11:55 24.74802 118.81082 15002 ft 428 kts 27°
2026-05-05 11:55 24.77345 118.82729 15437 ft 432 kts 26°
2026-05-05 11:56 24.79955 118.84420 15801 ft 438 kts 26°
2026-05-05 11:56 24.82603 118.86132 16191 ft 443 kts 26°
2026-05-05 11:56 24.85269 118.87857 16571 ft 447 kts 26°
2026-05-05 11:56 24.87956 118.89599 16986 ft 450 kts 26°
2026-05-05 11:57 24.90674 118.91362 17380 ft 454 kts 26°
2026-05-05 11:57 24.93408 118.93137 17767 ft 458 kts 26°
2026-05-05 11:57 24.96170 118.94928 18149 ft 462 kts 26°
2026-05-05 11:57 24.98934 118.96718 18492 ft 466 kts 27°
2026-05-05 11:58 25.01719 118.98524 18868 ft 468 kts 26°
2026-05-05 11:58 25.04546 119.00340 19180 ft 472 kts 25°
2026-05-05 11:58 25.07418 119.02094 19523 ft 473 kts 23°
2026-05-05 11:58 25.10333 119.03793 19867 ft 475 kts 22°
2026-05-05 11:59 25.13243 119.05445 20209 ft 477 kts 22°
2026-05-05 11:59 25.16204 119.07116 20561 ft 479 kts 22°
2026-05-05 11:59 25.19179 119.08805 20897 ft 481 kts 22°
2026-05-05 11:59 25.22156 119.10518 21259 ft 483 kts 22°
2026-05-05 12:00 25.25140 119.12257 21603 ft 486 kts 22°
2026-05-05 12:00 25.28130 119.14009 21926 ft 488 kts 22°
2026-05-05 12:00 25.31139 119.15775 22274 ft 490 kts 22°
2026-05-05 12:00 25.34154 119.17540 22581 ft 492 kts 22°
2026-05-05 12:01 25.37186 119.19317 22892 ft 494 kts 22°
2026-05-05 12:01 25.40227 119.21103 23218 ft 496 kts 22°
2026-05-05 12:01 25.43284 119.22900 23513 ft 498 kts 22°
2026-05-05 12:01 25.46347 119.24696 23776 ft 499 kts 22°
2026-05-05 12:02 25.49427 119.26499 24010 ft 501 kts 22°
2026-05-05 12:02 25.52458 119.28449 24268 ft 509 kts 30°
2026-05-05 12:02 25.55213 119.30865 24507 ft 516 kts 39°
2026-05-05 12:02 25.57732 119.33742 24765 ft 520 kts 44°
2026-05-05 12:03 25.60202 119.36675 25028 ft 522 kts 44°
2026-05-05 12:03 25.62687 119.39616 25290 ft 523 kts 43°
2026-05-05 12:03 25.65179 119.42559 25547 ft 525 kts 43°
2026-05-05 12:03 25.67682 119.45515 25807 ft 526 kts 43°
2026-05-05 12:04 25.70191 119.48479 26057 ft 528 kts 43°
2026-05-05 12:04 25.72705 119.51456 26342 ft 530 kts 43°
2026-05-05 12:04 25.75249 119.54437 26527 ft 532 kts 40°
2026-05-05 12:04 25.78034 119.57107 26770 ft 528 kts 32°
2026-05-05 12:05 25.81094 119.59318 27006 ft 523 kts 23°
2026-05-05 12:05 25.84325 119.61165 27251 ft 523 kts 21°
2026-05-05 12:05 25.87568 119.62998 27495 ft 524 kts 21°
2026-05-05 12:05 25.90823 119.64849 27741 ft 526 kts 21°
2026-05-05 12:06 25.94073 119.66701 28091 ft 524 kts 21°
2026-05-05 12:06 25.97322 119.68544 28451 ft 524 kts 21°
2026-05-05 12:06 26.00577 119.70379 28741 ft 525 kts 20°
2026-05-05 12:06 26.03849 119.72140 29063 ft 520 kts 15°
2026-05-05 12:07 26.07242 119.73415 29383 ft 510 kts
2026-05-05 12:07 26.10688 119.74132 29698 ft 499 kts 358°
2026-05-05 12:07 26.14083 119.74316 30014 ft 488 kts 349°
2026-05-05 12:07 26.17500 119.74123 30310 ft 485 kts 348°
2026-05-05 12:08 26.20824 119.73913 30614 ft 484 kts 347°
2026-05-05 12:08 26.24191 119.73700 30846 ft 485 kts 347°
2026-05-05 12:08 26.27562 119.73490 31110 ft 484 kts 347°
2026-05-05 12:08 26.30926 119.73280 31343 ft 485 kts 347°
2026-05-05 12:09 26.34291 119.73071 31620 ft 484 kts 347°
2026-05-05 12:09 26.37645 119.72862 31929 ft 482 kts 347°
2026-05-05 12:09 26.40993 119.72652 32224 ft 481 kts 347°
2026-05-05 12:09 26.44336 119.72445 32525 ft 480 kts 347°
2026-05-05 12:10 26.47672 119.72255 32872 ft 481 kts 349°
2026-05-05 12:10 26.51036 119.72182 33080 ft 485 kts 351°
2026-05-05 12:10 26.54422 119.72229 33279 ft 488 kts 352°
2026-05-05 12:10 26.57825 119.72350 33546 ft 489 kts 353°
2026-05-05 12:11 26.61223 119.72500 33800 ft 488 kts 353°
2026-05-05 12:11 26.64613 119.72643 34088 ft 487 kts 353°
2026-05-05 12:11 26.67959 119.72762 34189 ft 485 kts 352°
2026-05-05 12:11 26.71326 119.72854 34218 ft 483 kts 352°
2026-05-05 12:12 26.78049 119.72973 34208 ft 482 kts 352°
2026-05-05 12:12 26.84762 119.73079 34214 ft 483 kts 352°
2026-05-05 12:13 26.91488 119.73218 34215 ft 483 kts 352°
2026-05-05 12:13 26.98119 119.72902 34214 ft 467 kts 339°
2026-05-05 12:14 27.01213 119.71985 34255 ft 454 kts 330°
2026-05-05 12:14 27.04071 119.70588 34245 ft 443 kts 322°
2026-05-05 12:14 27.09271 119.67070 34239 ft 439 kts 319°
2026-05-05 12:15 27.14485 119.63494 34233 ft 439 kts 319°
2026-05-05 12:15 27.19704 119.59914 34228 ft 440 kts 319°
2026-05-05 12:16 27.25168 119.56671 34225 ft 456 kts 332°
2026-05-05 12:16 27.28289 119.55798 34230 ft 470 kts 343°
2026-05-05 12:16 27.31596 119.55573 34262 ft 482 kts 351°
2026-05-05 12:17 27.38311 119.55597 34233 ft 482 kts 351°
2026-05-05 12:17 27.45027 119.55621 34230 ft 483 kts 351°
2026-05-05 12:18 27.51748 119.55652 34230 ft 483 kts 351°
2026-05-05 12:18 27.58476 119.55690 34254 ft 483 kts 352°
2026-05-05 12:19 27.65203 119.55733 34235 ft 483 kts 352°
2026-05-05 12:19 27.71886 119.55768 34225 ft 483 kts 352°
2026-05-05 12:20 27.78626 119.55800 34219 ft 484 kts 352°
2026-05-05 12:20 27.85361 119.55843 34213 ft 483 kts 352°
2026-05-05 12:21 27.92098 119.55891 34211 ft 484 kts 352°
2026-05-05 12:21 27.98833 119.55971 34204 ft 484 kts 352°
2026-05-05 12:22 28.05578 119.56090 34202 ft 484 kts 352°
2026-05-05 12:22 28.12316 119.56224 34191 ft 484 kts 354°
2026-05-05 12:23 28.19052 119.56558 34184 ft 485 kts 355°
2026-05-05 12:23 28.25800 119.57004 34183 ft 486 kts 356°
2026-05-05 12:24 28.32498 119.57420 34174 ft 485 kts 355°
2026-05-05 12:24 28.39245 119.57783 34190 ft 485 kts 355°
2026-05-05 12:25 28.45980 119.58147 34183 ft 484 kts 355°
2026-05-05 12:25 28.52711 119.58540 34172 ft 484 kts 355°
2026-05-05 12:26 28.59441 119.58965 34196 ft 484 kts 356°
2026-05-05 12:26 28.66125 119.59395 34157 ft 479 kts 356°
2026-05-05 12:27 28.72785 119.59811 34155 ft 479 kts 356°
2026-05-05 12:27 28.79400 119.60213 34142 ft 478 kts 356°
2026-05-05 12:28 28.86054 119.60621 34167 ft 479 kts 356°
2026-05-05 12:28 28.92698 119.61034 34152 ft 478 kts 356°
2026-05-05 12:29 28.99341 119.61452 34138 ft 478 kts 356°
2026-05-05 12:29 29.05980 119.61870 34136 ft 477 kts 356°
2026-05-05 12:30 29.12605 119.62277 34153 ft 476 kts 357°
2026-05-05 12:30 29.19221 119.62676 34141 ft 475 kts 357°
2026-05-05 12:31 29.25777 119.63081 34128 ft 474 kts 357°
2026-05-05 12:31 29.32370 119.63483 34125 ft 474 kts 357°
2026-05-05 12:32 29.38945 119.63883 34136 ft 473 kts 357°
2026-05-05 12:32 29.45510 119.64286 34125 ft 472 kts 357°
2026-05-05 12:33 29.52060 119.64685 34121 ft 470 kts 356°
2026-05-05 12:33 29.58440 119.63878 34116 ft 456 kts 340°
2026-05-05 12:34 29.64593 119.62123 34126 ft 455 kts 340°
2026-05-05 12:34 29.70734 119.60373 34116 ft 455 kts 340°
2026-05-05 12:35 29.76880 119.58633 34111 ft 454 kts 340°
2026-05-05 12:35 29.83015 119.56892 34100 ft 454 kts 340°
2026-05-05 12:36 29.89148 119.55145 34117 ft 453 kts 341°
2026-05-05 12:36 29.95233 119.53413 34108 ft 453 kts 341°
2026-05-05 12:37 30.01347 119.51667 34105 ft 452 kts 341°
2026-05-05 12:37 30.07443 119.49929 34096 ft 451 kts 341°
2026-05-05 12:38 30.13529 119.48186 34101 ft 450 kts 342°
2026-05-05 12:38 30.19611 119.46450 34099 ft 450 kts 342°
2026-05-05 12:39 30.25686 119.44718 34091 ft 449 kts 342°
2026-05-05 12:39 30.31749 119.42976 34089 ft 449 kts 342°
2026-05-05 12:40 30.37814 119.41229 34084 ft 448 kts 342°
2026-05-05 12:40 30.43875 119.39485 34083 ft 448 kts 342°
2026-05-05 12:41 30.49891 119.37758 34075 ft 448 kts 342°
2026-05-05 12:41 30.55941 119.36017 34064 ft 448 kts 342°
2026-05-05 12:42 30.61015 119.34556 34062 ft 448 kts 342°
2026-05-05 12:42 30.67028 119.32822 34065 ft 447 kts 342°
2026-05-05 12:43 30.73054 119.31076 34059 ft 447 kts 342°
2026-05-05 12:43 30.79090 119.29320 34045 ft 447 kts 342°
2026-05-05 12:44 30.85124 119.27563 34041 ft 447 kts 342°
2026-05-05 12:44 30.91163 119.25811 34032 ft 447 kts 342°
2026-05-05 12:45 30.97156 119.24062 34038 ft 445 kts 343°
2026-05-05 12:45 31.03124 119.22320 34038 ft 440 kts 343°
2026-05-05 12:46 31.09065 119.20587 34030 ft 440 kts 343°
2026-05-05 12:46 31.15008 119.18859 34026 ft 440 kts 343°
2026-05-05 12:47 31.20941 119.17128 34049 ft 439 kts 343°
2026-05-05 12:47 31.26864 119.15387 34045 ft 439 kts 343°
2026-05-05 12:48 31.32789 119.13647 34037 ft 438 kts 344°
2026-05-05 12:48 31.38708 119.11917 34041 ft 438 kts 344°
2026-05-05 12:49 31.44609 119.10181 34037 ft 437 kts 343°
2026-05-05 12:49 31.50473 119.08446 34052 ft 436 kts 344°
2026-05-05 12:50 31.56351 119.06712 34043 ft 435 kts 344°
2026-05-05 12:50 31.62203 119.04948 34043 ft 434 kts 343°
2026-05-05 12:51 31.67931 119.02749 34037 ft 432 kts 337°
2026-05-05 12:51 31.73535 119.00206 34037 ft 432 kts 338°
2026-05-05 12:52 31.79150 118.97692 34037 ft 431 kts 338°
2026-05-05 12:52 31.84752 118.95186 34023 ft 430 kts 339°
2026-05-05 12:53 31.90343 118.92681 34045 ft 429 kts 339°
2026-05-05 12:53 31.95879 118.90205 34040 ft 428 kts 339°
2026-05-05 12:54 32.04210 118.86456 34055 ft 426 kts 339°
2026-05-05 12:55 32.09740 118.83970 34049 ft 425 kts 339°
2026-05-05 12:55 32.15257 118.81484 34050 ft 424 kts 339°
2026-05-05 12:56 32.20770 118.78997 34051 ft 424 kts 339°
2026-05-05 12:56 32.26270 118.76508 34051 ft 423 kts 339°
2026-05-05 12:57 32.31768 118.74015 34052 ft 423 kts 339°
2026-05-05 12:57 32.37257 118.71527 34053 ft 422 kts 339°
2026-05-05 12:58 32.42705 118.69051 34049 ft 422 kts 339°
2026-05-05 12:58 32.48184 118.66561 34045 ft 422 kts 339°
2026-05-05 12:59 32.53666 118.64070 34049 ft 421 kts 339°
2026-05-05 12:59 32.59121 118.61584 34060 ft 419 kts 339°
2026-05-05 13:00 32.67274 118.57868 34062 ft 417 kts 340°
2026-05-05 13:01 32.78319 118.53839 34053 ft 416 kts 344°
2026-05-05 13:01 32.83883 118.51945 34072 ft 415 kts 344°
2026-05-05 13:02 32.89401 118.49985 34058 ft 413 kts 343°
2026-05-05 13:02 32.94897 118.47995 34061 ft 412 kts 343°
2026-05-05 13:03 33.00378 118.46020 34056 ft 411 kts 343°
2026-05-05 13:03 33.05865 118.44049 34051 ft 411 kts 343°
2026-05-05 13:04 33.11345 118.42084 34049 ft 411 kts 343°
2026-05-05 13:04 33.16784 118.40125 34046 ft 411 kts 343°
2026-05-05 13:05 33.22252 118.38147 34042 ft 410 kts 343°
2026-05-05 13:05 33.27718 118.36177 34029 ft 410 kts 344°
2026-05-05 13:06 33.33177 118.34209 34055 ft 409 kts 345°
2026-05-05 13:06 33.38604 118.32257 34064 ft 406 kts 344°
2026-05-05 13:07 33.44011 118.30302 34056 ft 405 kts 344°
2026-05-05 13:07 33.49395 118.28343 34051 ft 403 kts 344°
2026-05-05 13:08 33.54763 118.26400 34038 ft 403 kts 345°
2026-05-05 13:08 33.60131 118.24460 34048 ft 402 kts 345°
2026-05-05 13:09 33.65488 118.22513 34047 ft 402 kts 345°
2026-05-05 13:09 33.70807 118.20576 34038 ft 402 kts 345°
2026-05-05 13:10 33.76160 118.18630 34046 ft 402 kts 345°
2026-05-05 13:10 33.81509 118.16685 34038 ft 402 kts 345°
2026-05-05 13:11 33.86860 118.14744 34047 ft 401 kts 345°
2026-05-05 13:11 33.92200 118.12807 34046 ft 401 kts 345°
2026-05-05 13:12 33.97534 118.10863 34040 ft 400 kts 345°
2026-05-05 13:12 34.02836 118.08935 34037 ft 400 kts 345°
2026-05-05 13:13 34.08173 118.06996 34034 ft 400 kts 344°
2026-05-05 13:13 34.13510 118.05052 34003 ft 401 kts 343°
2026-05-05 13:14 34.18851 118.03103 34004 ft 401 kts 343°
2026-05-05 13:14 34.24199 118.01154 34001 ft 402 kts 343°
2026-05-05 13:15 34.29555 117.99204 34004 ft 402 kts 343°
2026-05-05 13:15 34.34922 117.97299 34006 ft 402 kts 343°
2026-05-05 13:16 34.40295 117.95395 34004 ft 402 kts 343°
2026-05-05 13:16 34.45668 117.93477 34001 ft 403 kts 343°
2026-05-05 13:17 34.51044 117.91558 33996 ft 403 kts 343°
2026-05-05 13:17 34.56380 117.89643 33997 ft 403 kts 343°
2026-05-05 13:18 34.61761 117.87707 33999 ft 403 kts 343°
2026-05-05 13:18 34.67150 117.85778 33998 ft 403 kts 343°
2026-05-05 13:19 34.72529 117.83844 34000 ft 403 kts 343°
2026-05-05 13:19 34.77907 117.81901 33997 ft 403 kts 343°
2026-05-05 13:20 34.83276 117.79962 33996 ft 403 kts 343°
2026-05-05 13:20 34.88612 117.78011 34001 ft 403 kts 342°
2026-05-05 13:21 34.93984 117.76043 33997 ft 403 kts 342°
2026-05-05 13:21 34.99359 117.74076 33997 ft 403 kts 342°
2026-05-05 13:22 35.04735 117.72109 33992 ft 403 kts 342°
2026-05-05 13:22 35.10113 117.70136 33996 ft 403 kts 342°
2026-05-05 13:23 35.15485 117.68159 33993 ft 403 kts 342°
2026-05-05 13:23 35.20860 117.66190 33989 ft 403 kts 342°
2026-05-05 13:24 35.26235 117.64217 33986 ft 403 kts 342°
2026-05-05 13:24 35.31611 117.62235 33985 ft 403 kts 342°
2026-05-05 13:25 35.36983 117.60255 33989 ft 403 kts 342°